Flag for Russia

Past Weather in Volgograd, Russia — Yesterday and Last 2 Weeks

Now
73 °F

Passing clouds.


Feels Like: 76 °F
Forecast: 76 / 55 °F
Wind: 8 mph from East

Location: Volgograd Airport
Current Time: Sep 24, 2020 at 4:30:16 pm
Latest Report: Sep 24, 2020 at 4:00 pm
Visibility: N/A
Pressure30.09 "Hg
Humidity: 27%
Dew Point: 37 °F
Location of VolgogradLocation

Past Weather in Volgograd — Graph

°F

Volgograd Temperature Yesterday

Maximum temperature yesterday: 77 °F (at 4:00 pm)
Minimum temperature yesterday: 46 °F (at 6:00 am)
Average temperature yesterday: 60 °F

High & Low Weather Summary for the Past Weeks

 TemperatureHumidityPressure
High86 °F (Sep 11, 4:30 pm)88% (Sep 19, 2:00 am)30.33 "Hg (Sep 19, 2:00 am)
Low39 °F (Sep 21, 2:30 am)17% (Sep 12, 4:00 pm)29.68 "Hg (Sep 18, 9:00 pm)
Average60 °F45%30.07 "Hg
* Reported Sep 9 3:00 pm — Sep 24 3:30 pm, Volgograd. Weather by CustomWeather, © 2020

Note: Actual official high and low records may vary slightly from our data, if they occured in-between our weather recording intervals... More about our weather records

Volgograd Weather History for the Previous 24 Hours

Scroll right to see more
 ConditionsComfort  
Time TempWeatherWind HumidityBarometerVisibility
3:30 pm
Thu, Sep 24
73 °FSunny.10 mph25%30.09 "Hg10 mi
3:00 pm75 °FPassing clouds.8 mph24%30.09 "HgN/A
2:30 pm75 °FPassing clouds.8 mph22%30.09 "HgN/A
2:00 pm77 °FSunny.6 mph22%30.09 "Hg10 mi
1:30 pm75 °FPassing clouds.6 mph22%30.12 "HgN/A
1:00 pm75 °FSunny.8 mph24%30.12 "Hg10 mi
12:30 pm73 °FPassing clouds.6 mph25%30.12 "HgN/A
12:00 pm73 °FPassing clouds.3 mph27%30.12 "HgN/A
11:30 am73 °FPassing clouds.3 mph27%30.12 "HgN/A
11:00 am72 °FPassing clouds.3 mph33%30.12 "HgN/A
10:30 am70 °FPassing clouds.6 mph38%30.12 "HgN/A
10:00 am68 °FPassing clouds.6 mph40%30.12 "HgN/A
9:30 am63 °FSunny.6 mph52%30.12 "Hg10 mi
9:00 am59 °FSunny.3 mph63%30.12 "Hg10 mi
8:30 am55 °FSunny.1 mph59%30.09 "Hg10 mi
8:00 am52 °FSunny.3 mph54%30.09 "Hg10 mi
7:30 am50 °FSunny.3 mph58%30.09 "Hg10 mi
7:00 am50 °FPassing clouds.3 mph54%30.09 "HgN/A
6:30 am52 °FSunny.6 mph50%30.09 "Hg10 mi
6:00 am48 °FSunny.6 mph54%30.09 "Hg10 mi
5:30 am46 °FClear.No wind50%30.09 "Hg10 mi
5:00 am48 °FClear.No wind58%30.09 "Hg10 mi
4:30 am50 °FClear.3 mph50%30.09 "Hg10 mi
4:00 am50 °FClear.3 mph50%30.09 "Hg10 mi
3:30 am48 °FClear.3 mph50%30.09 "Hg10 mi
3:00 am48 °FClear.1 mph50%30.09 "Hg10 mi
2:30 am52 °FClear.3 mph47%30.09 "Hg10 mi
2:00 am52 °FClear.3 mph47%30.09 "Hg10 mi
1:30 am50 °FClear.3 mph50%30.09 "Hg10 mi
1:00 am52 °FClear.3 mph47%30.09 "Hg10 mi
12:30 am50 °FClear.3 mph47%30.07 "Hg10 mi
12:00 am50 °FClear.3 mph47%30.07 "Hg10 mi
11:30 pm
Wed, Sep 23
52 °FClear.3 mph44%30.07 "Hg10 mi
11:00 pm54 °FClear.3 mph44%30.07 "Hg10 mi
10:30 pm54 °FClear.3 mph41%30.07 "Hg10 mi
10:00 pm55 °FClear.3 mph41%30.07 "Hg10 mi
9:30 pm57 °FClear.3 mph39%30.07 "Hg10 mi
9:00 pm57 °FClear.3 mph39%30.07 "Hg10 mi
8:30 pm64 °FClear.3 mph32%30.07 "Hg10 mi
8:00 pm64 °FClear.3 mph32%30.07 "Hg10 mi
7:30 pm68 °FClear.1 mph28%30.07 "Hg10 mi
7:00 pm66 °FClear.3 mph30%30.07 "Hg10 mi
6:30 pm72 °FClear.6 mph25%30.07 "Hg10 mi
6:00 pm75 °FClear.6 mph22%30.07 "Hg10 mi
5:30 pm75 °FSunny.3 mph22%30.07 "Hg10 mi
5:00 pm75 °FPassing clouds.6 mph22%30.07 "HgN/A
4:30 pm75 °FPassing clouds.6 mph22%30.07 "HgN/A
4:00 pm77 °FPassing clouds.10 mph21%30.07 "HgN/A
Weather by CustomWeather, © 2020

See weather overview